Location: Unspecified
(0.0000°N, 0.0000°E)
Time: 15:59:14
(UTC+00:00)

AO-7 - Pass Details

Date: 03 October 2021
Orbit: 1439 x 1459 km, 101.9° (Epoch: 16 October)

Event Time Altitude Azimuth Distance (km) Brightness Sun altitude
Rises 03:50:53 0° 13° (NNE) 4,518 ? -29.5°
Reaches altitude 10° 03:53:38 10° 12° (NNE) 3,542 ? -28.8°
Maximum altitude 04:01:53 80° 286° (WNW) 1,461 ? -26.7°
Drops below altitude 10° 04:10:10 10° 200° (SSW) 3,554 ? -24.7°
Sets 04:12:57 0° 198° (SSW) 4,535 ? -24.0°
